• In Deutschland
  • Länderverzeichnis
  • Für 7 Tage
  • Wassertemperatur
  • Satellitenkarten
  • Wetterkarte
  • Widgets
  • user-avatar
    Anmelden

    Stündliche Wetter Leonberg

    Heute, 25 Juni, Montag

    Zeit Temperatur Niederschläge Wind Luftdruck Luftfeuchtigkeit
    00:00 +13°C° 0 mm 1 m/S 732 mmHg 83%
    01:00 +13°C° 0 mm 1 m/S 732 mmHg 85%
    02:00 +13°C° 0 mm 1 m/S 732 mmHg 87%
    03:00 +13°C° 0 mm 1 m/S 732 mmHg 89%
    04:00 +12°C° 0 mm 1 m/S 732 mmHg 91%
    05:00 +13°C° 0 mm 1 m/S 733 mmHg 89%
    06:00 +13°C° 0 mm 1 m/S 733 mmHg 87%
    07:00 +14°C° 0 mm 1 m/S 733 mmHg 85%
    08:00 +15°C° 0,1 mm 1 m/S 733 mmHg 82%
    09:00 +15°C° 0,1 mm 1 m/S 733 mmHg 79%
    10:00 +16°C° 0,1 mm 1 m/S 733 mmHg 76%
    11:00 +17°C° 0,1 mm 2 m/S 734 mmHg 70%
    12:00 +18°C° 0,1 mm 2 m/S 734 mmHg 65%
    13:00 +19°C° 0,1 mm 2 m/S 734 mmHg 60%
    14:00 +20°C° 0 mm 3 m/S 734 mmHg 59%
    15:00 +20°C° 0 mm 3 m/S 734 mmHg 59%
    16:00 +20°C° 0 mm 3 m/S 733 mmHg 58%
    17:00 +19°C° 0 mm 3 m/S 733 mmHg 62%
    18:00 +19°C° 0 mm 2 m/S 733 mmHg 66%
    19:00 +18°C° 0 mm 2 m/S 733 mmHg 70%
    20:00 +16°C° 0 mm 2 m/S 734 mmHg 76%
    21:00 +15°C° 0 mm 1 m/S 734 mmHg 82%
    22:00 +13°C° 0 mm 1 m/S 734 mmHg 88%
    23:00 +12°C° 0 mm 0 m/S 734 mmHg 88%

    Morgen, 26 Juni, Dienstag

    Zeit Temperatur Niederschläge Wind Luftdruck Luftfeuchtigkeit
    00:00 +11°C° 0 mm 0 m/S 734 mmHg 89%
    01:00 +11°C° 0 mm 0 m/S 734 mmHg 90%
    02:00 +11°C° 0 mm 0 m/S 734 mmHg 90%
    03:00 +10°C° 0 mm 0 m/S 734 mmHg 91%
    04:00 +10°C° 0 mm 0 m/S 733 mmHg 91%
    05:00 +12°C° 0 mm 0 m/S 733 mmHg 87%
    06:00 +13°C° 0 mm 0 m/S 734 mmHg 83%
    07:00 +15°C° 0 mm 0 m/S 734 mmHg 79%
    08:00 +18°C° 0 mm 1 m/S 734 mmHg 74%
    09:00 +20°C° 0 mm 1 m/S 734 mmHg 69%
    10:00 +21°C° 0 mm 1 m/S 734 mmHg 64%
    11:00 +20°C° 0 mm 2 m/S 734 mmHg 65%
    12:00 +20°C° 0 mm 2 m/S 734 mmHg 66%
    13:00 +20°C° 0 mm 2 m/S 733 mmHg 67%
    14:00 +20°C° 0 mm 2 m/S 733 mmHg 66%
    15:00 +21°C° 0 mm 2 m/S 733 mmHg 66%
    16:00 +21°C° 0 mm 2 m/S 733 mmHg 66%
    17:00 +20°C° 0 mm 2 m/S 733 mmHg 69%
    18:00 +20°C° 0 mm 2 m/S 733 mmHg 72%
    19:00 +19°C° 0 mm 2 m/S 733 mmHg 76%
    20:00 +18°C° 0 mm 2 m/S 733 mmHg 81%
    21:00 +16°C° 0 mm 1 m/S 734 mmHg 86%
    22:00 +15°C° 0 mm 1 m/S 734 mmHg 91%
    23:00 +14°C° 0 mm 1 m/S 734 mmHg 92%

    übermorgen, 27 Juni, Mittwoch

    Zeit Temperatur Niederschläge Wind Luftdruck Luftfeuchtigkeit
    00:00 +14°C° 0 mm 1 m/S 733 mmHg 92%
    01:00 +13°C° 0 mm 1 m/S 733 mmHg 93%
    02:00 +13°C° 0 mm 1 m/S 733 mmHg 93%
    03:00 +12°C° 0 mm 1 m/S 733 mmHg 94%
    04:00 +12°C° 0 mm 1 m/S 733 mmHg 94%
    05:00 +13°C° 0 mm 1 m/S 733 mmHg 90%
    06:00 +15°C° 0 mm 1 m/S 733 mmHg 87%
    07:00 +16°C° 0 mm 1 m/S 733 mmHg 83%
    08:00 +17°C° 0 mm 2 m/S 733 mmHg 78%
    09:00 +19°C° 0 mm 2 m/S 733 mmHg 73%
    10:00 +20°C° 0 mm 3 m/S 733 mmHg 69%
    11:00 +21°C° 0,1 mm 3 m/S 733 mmHg 63%
    12:00 +22°C° 0,1 mm 4 m/S 733 mmHg 57%
    13:00 +23°C° 0,1 mm 4 m/S 733 mmHg 51%
    14:00 +23°C° 0 mm 4 m/S 732 mmHg 51%
    15:00 +23°C° 0 mm 4 m/S 732 mmHg 50%
    16:00 +23°C° 0 mm 4 m/S 732 mmHg 49%
    17:00 +22°C° 0 mm 4 m/S 732 mmHg 55%
    18:00 +21°C° 0 mm 4 m/S 732 mmHg 61%
    19:00 +20°C° 0 mm 4 m/S 732 mmHg 66%
    20:00 +18°C° 0 mm 3 m/S 732 mmHg 71%
    21:00 +17°C° 0 mm 3 m/S 732 mmHg 75%
    22:00 +15°C° 0 mm 2 m/S 732 mmHg 80%
    23:00 +14°C° 0 mm 2 m/S 732 mmHg 83%

    28 Juni, Donnerstag

    Zeit Temperatur Niederschläge Wind Luftdruck Luftfeuchtigkeit
    00:00 +14°C° 0 mm 2 m/S 732 mmHg 87%
    01:00 +13°C° 0 mm 2 m/S 732 mmHg 90%
    02:00 +13°C° 0 mm 2 m/S 731 mmHg 91%
    03:00 +12°C° 0 mm 2 m/S 731 mmHg 92%
    04:00 +12°C° 0 mm 2 m/S 731 mmHg 93%
    05:00 +13°C° 0 mm 2 m/S 731 mmHg 90%
    06:00 +14°C° 0 mm 2 m/S 731 mmHg 86%
    07:00 +16°C° 0 mm 2 m/S 731 mmHg 82%
    08:00 +17°C° 0,1 mm 3 m/S 731 mmHg 79%
    09:00 +18°C° 0,1 mm 4 m/S 731 mmHg 75%
    10:00 +19°C° 0,1 mm 4 m/S 731 mmHg 72%
    11:00 +19°C° 0,7 mm 4 m/S 730 mmHg 78%
    12:00 +18°C° 0,7 mm 3 m/S 730 mmHg 83%
    13:00 +18°C° 0,7 mm 3 m/S 730 mmHg 89%
    14:00 +18°C° 0,6 mm 2 m/S 730 mmHg 90%
    15:00 +18°C° 0,6 mm 2 m/S 729 mmHg 91%
    16:00 +18°C° 0,6 mm 2 m/S 729 mmHg 92%
    17:00 +18°C° 0,6 mm 2 m/S 729 mmHg 92%
    18:00 +18°C° 0,6 mm 2 m/S 729 mmHg 93%
    19:00 +18°C° 0,6 mm 2 m/S 729 mmHg 93%
    20:00 +18°C° 0,1 mm 2 m/S 729 mmHg 94%
    21:00 +18°C° 0,1 mm 2 m/S 729 mmHg 94%
    22:00 +17°C° 0,1 mm 2 m/S 729 mmHg 95%
    23:00 +17°C° 0 mm 2 m/S 729 mmHg 95%

    29 Juni, Freitag

    Zeit Temperatur Niederschläge Wind Luftdruck Luftfeuchtigkeit
    00:00 +17°C° 0 mm 2 m/S 728 mmHg 96%
    01:00 +16°C° 0 mm 1 m/S 728 mmHg 96%
    02:00 +16°C° 0 mm 2 m/S 728 mmHg 96%
    03:00 +16°C° 0 mm 2 m/S 728 mmHg 96%
    04:00 +16°C° 0 mm 2 m/S 728 mmHg 96%
    05:00 +17°C° 0,1 mm 2 m/S 728 mmHg 95%
    06:00 +17°C° 0,1 mm 2 m/S 728 mmHg 94%
    07:00 +18°C° 0,1 mm 2 m/S 728 mmHg 93%
    08:00 +19°C° 0 mm 3 m/S 728 mmHg 90%
    09:00 +20°C° 0 mm 3 m/S 728 mmHg 87%
    10:00 +21°C° 0 mm 3 m/S 728 mmHg 84%
    11:00 +21°C° 0,1 mm 3 m/S 728 mmHg 82%
    12:00 +22°C° 0,1 mm 3 m/S 728 mmHg 81%
    13:00 +22°C° 0,1 mm 3 m/S 728 mmHg 79%
    14:00 +24°C° 0,1 mm 3 m/S 728 mmHg 76%
    15:00 +25°C° 0,1 mm 3 m/S 728 mmHg 72%
    16:00 +26°C° 0,1 mm 3 m/S 728 mmHg 68%
    17:00 +26°C° 0,2 mm 3 m/S 728 mmHg 72%
    18:00 +25°C° 0,2 mm 3 m/S 728 mmHg 76%
    19:00 +25°C° 0,2 mm 2 m/S 729 mmHg 80%
    20:00 +23°C° 0,2 mm 2 m/S 729 mmHg 84%
    21:00 +21°C° 0,2 mm 2 m/S 729 mmHg 88%
    22:00 +21°C° 0,2 mm 1 m/S 729 mmHg 92%
    23:00 +20°C° 0 mm 1 m/S 729 mmHg 92%

    30 Juni, Samstag

    Zeit Temperatur Niederschläge Wind Luftdruck Luftfeuchtigkeit
    00:00 +20°C° 0 mm 1 m/S 729 mmHg 93%
    01:00 +19°C° 0 mm 1 m/S 730 mmHg 93%
    02:00 +19°C° 0 mm 1 m/S 730 mmHg 93%
    03:00 +18°C° 0 mm 1 m/S 730 mmHg 93%
    04:00 +18°C° 0 mm 1 m/S 730 mmHg 93%
    05:00 +19°C° 0 mm 1 m/S 730 mmHg 91%
    06:00 +20°C° 0 mm 1 m/S 730 mmHg 88%
    07:00 +21°C° 0 mm 1 m/S 730 mmHg 86%
    08:00 +23°C° 0 mm 2 m/S 730 mmHg 78%
    09:00 +25°C° 0 mm 2 m/S 730 mmHg 71%
    10:00 +27°C° 0 mm 3 m/S 730 mmHg 63%
    11:00 +28°C° 0 mm 3 m/S 730 mmHg 59%
    12:00 +28°C° 0 mm 3 m/S 730 mmHg 56%
    13:00 +29°C° 0 mm 4 m/S 730 mmHg 52%
    14:00 +29°C° 0 mm 4 m/S 730 mmHg 52%
    15:00 +30°C° 0 mm 4 m/S 730 mmHg 52%
    16:00 +30°C° 0 mm 4 m/S 729 mmHg 51%
    17:00 +28°C° 0 mm 3 m/S 729 mmHg 57%
    18:00 +27°C° 0 mm 3 m/S 729 mmHg 62%
    19:00 +26°C° 0 mm 2 m/S 729 mmHg 67%
    20:00 +25°C° 0 mm 2 m/S 729 mmHg 72%
    21:00 +23°C° 0 mm 2 m/S 730 mmHg 77%
    22:00 +20°C° 0 mm 2 m/S 730 mmHg 81%
    23:00 +20°C° 0 mm 2 m/S 730 mmHg 84%
    Mehr zeigen